DW1345 Weather Reports


time (UTC)temp
F
wind
direction
speed
knots
gust
knots
rain 1hr
in
rain 24hr
in
rain mn
in
humidity
%
barometer
mb
20260505021523 37 298 4.3 0.0 0.00 0.00 0.01 87 996.8
20260505020022 37 285 5.2 0.0 0.00 0.00 0.01 88 996.6
20260505014523 37 279 4.3 0.0 0.00 0.00 0.01 89 996.6
20260505013019 36 262 4.3 0.0 0.00 0.00 0.01 89 996.6
20260505011518 36 244 4.3 0.0 0.00 0.00 0.01 89 996.6
20260505010016 36 304 2.6 0.0 0.00 0.00 0.01 89 996.7
20260505004517 36 242 3.5 0.0 0.00 0.00 0.00 89 996.7
20260505003014 37 263 4.3 0.0 0.00 0.00 0.00 89 996.7
20260505001512 37 302 4.3 0.0 0.00 0.00 0.00 88 996.8
20260505000013 37 248 2.6 0.0 0.00 0.00 0.00 87 996.9
20260504234509 36 253 1.7 0.0 0.00 0.00 0.00 87 996.9
20260504233007 36 248 1.7 0.0 0.00 0.00 0.00 87 997.0
20260504231505 36 242 2.6 0.0 0.00 0.00 0.00 87 996.8
20260504230009 36 266 2.6 0.0 0.00 0.00 0.00 87 997.0
20260504224508 35 264 1.7 0.0 0.00 0.00 0.00 87 997.0
20260504223002 35 273 2.6 0.0 0.00 0.00 0.00 86 997.0
20260504221600 36 227 3.5 0.0 0.00 0.00 0.00 86 996.9
20260504220100 36 259 2.6 0.0 0.00 0.00 0.00 86 997.0
20260504214557 36 294 3.5 0.0 0.00 0.00 0.18 85 996.9
20260504213101 36 269 0.9 0.0 0.00 0.00 0.18 85 996.9
20260504211600 37 292 2.6 0.0 0.00 0.00 0.18 85 996.9
20260504204556 38 304 4.3 0.0 0.00 0.00 0.18 84 997.1
20260504203054 38 259 1.7 0.0 0.00 0.00 0.18 82 997.0
20260504201557 38 303 3.5 0.0 0.00 0.00 0.18 81 996.8
20260504194553 38 252 2.6 0.0 0.00 0.00 0.18 81 996.6
20260504193053 38 333 2.6 0.0 0.00 0.00 0.18 80 996.7
20260504191607 38 291 3.5 0.0 0.00 0.00 0.18 80 996.5
20260504190051 38 310 3.5 0.0 0.00 0.00 0.18 79 996.6
20260504184551 38 360 4.3 0.0 0.00 0.00 0.18 79 996.6
20260504183050 38 301 5.2 0.0 0.00 0.00 0.18 79 996.6
20260504181552 39 305 3.5 0.0 0.00 0.00 0.18 79 996.4
20260504180050 40 309 4.3 0.0 0.00 0.00 0.18 78 996.4
20260504174555 41 300 3.5 0.0 0.00 0.00 0.18 77 996.1
20260504173049 40 285 4.3 0.0 0.00 0.00 0.18 76 996.1
20260504171549 41 280 4.3 0.0 0.00 0.00 0.18 74 996.1
20260504081524 36 76 3.5 0.0 0.00 0.00 0.10 92 994.9
20260504050006 36 28 2.6 0.0 0.00 0.00 0.06 92 995.2
20260504044510 36 47 1.7 0.0 0.00 0.00 0.06 92 995.4
20260504043007 36 46 2.6 0.0 0.00 0.00 0.06 92 995.3
20260504041501 35 38 1.7 0.0 0.00 0.00 0.06 92 995.5
20260504040100 35 40 1.7 0.0 0.00 0.00 0.06 92 995.7
20260504034557 35 43 1.7 0.0 0.00 0.00 0.06 91 996.0
20260504033109 35 64 0.9 0.0 0.00 0.00 0.05 91 996.1
20260504031558 35 63 0.9 0.0 0.00 0.00 0.05 91 996.4
20260504030109 35 63 0.0 0.0 0.00 0.00 0.04 91 996.8
20260504024552 35 63 1.7 0.0 0.00 0.00 0.04 91 996.8
20260504023051 35 66 0.9 0.0 0.00 0.00 0.04 91 996.9